EA3FHP Weather Reports


time (UTC)temp
F
wind
direction
speed
knots
gust
knots
rain 1hr
in
rain 24hr
in
rain mn
in
humidity
%
barometer
mb
20260506175003 61 195 1.7 5.2 0.00 0.05 0.01 62 1011.8
20260506174003 61 197 1.7 7.0 0.00 0.05 0.01 61 1011.6
20260506173003 62 205 1.7 6.1 0.00 0.05 0.01 60 1011.5
20260506172003 63 180 3.5 9.6 0.00 0.06 0.01 60 1011.4
20260506171003 64 186 2.6 9.6 0.00 0.06 0.01 57 1011.5
20260506170003 64 189 3.5 8.7 0.00 0.06 0.01 57 1011.3
20260506165003 64 202 1.7 6.1 0.00 0.07 0.01 55 1011.5
20260506164003 63 205 3.5 8.7 0.00 0.07 0.01 57 1011.3
20260506163003 64 199 3.5 13.0 0.00 0.07 0.01 57 1011.2
20260506162003 66 212 2.6 10.4 0.00 0.07 0.01 54 1011.0
20260506161003 67 211 1.7 4.3 0.00 0.08 0.01 53 1011.2
20260506160003 66 190 3.5 10.4 0.00 0.08 0.01 54 1010.9
20260506155003 66 202 2.6 12.2 0.00 0.09 0.01 54 1011.3
20260506154003 66 180 2.6 9.6 0.00 0.09 0.01 52 1011.1
20260506153003 67 193 2.6 7.8 0.00 0.09 0.01 52 1011.1
20260506152003 66 179 2.6 8.7 0.00 0.09 0.01 53 1011.1
20260506151003 67 203 2.6 9.6 0.00 0.09 0.01 53 1011.0
20260506150004 65 217 1.7 7.0 0.00 0.09 0.01 55 1011.2
20260506145004 65 178 2.6 7.8 0.00 0.09 0.01 57 1011.0
20260506144003 67 205 1.7 6.1 0.00 0.09 0.01 53 1011.0
20260506143003 65 300 4.3 13.0 0.00 0.09 0.01 52 1011.2
20260505204003 49 0 0.0 0.0 0.00 0.28 0.28 92 1012.8
20260505203003 50 0 0.0 0.0 0.00 0.30 0.28 92 1012.4
20260505202003 50 0 0.0 0.0 0.00 0.30 0.28 91 1012.3
20260505201003 50 360 0.0 2.6 0.01 0.38 0.28 91 1012.0
20260505200003 51 360 0.9 3.5 0.01 0.39 0.28 90 1011.9
20260505195003 51 346 0.9 3.5 0.01 0.39 0.28 90 1011.6
20260505194003 51 360 0.9 4.3 0.01 0.39 0.28 90 1011.4
20260505193003 51 0 0.0 0.0 0.04 0.39 0.28 90 1011.4
20260505192003 51 90 0.0 0.9 0.04 0.39 0.28 89 1011.5
20260505191003 51 0 0.0 0.0 0.02 0.38 0.27 89 1011.6
20260505190004 52 0 0.0 0.0 0.02 0.38 0.27 88 1011.7
20260505185003 52 90 0.0 2.6 0.02 0.38 0.27 88 1011.4
20260505184003 52 90 0.0 2.6 0.02 0.38 0.27 87 1011.5
20260505183003 52 90 0.0 1.7 0.00 0.35 0.25 86 1011.5
20260505182003 52 57 0.9 3.5 0.01 0.35 0.25 85 1011.7
20260505181003 52 324 0.9 5.2 0.01 0.35 0.25 84 1011.7
20260505180003 53 296 2.6 7.0 0.01 0.35 0.25 82 1011.7